Home > Weather > Hard > Past weeks

Flag for Austria Past Weather in Hard, Vorarlberg, Austria — Yesterday and Last 2 Weeks

Now
67 °F

Partly sunny.


Feels Like: 67 °F
Forecast: 65 / 79 °F
Wind: 1 mph from Southeast

Location: Bregenz

Current Time: Jul 24, 2016 at 8:53:35 AM

Latest Report: Jul 24, 2016 at 8:00 AM


Visibility: 11 mi

Pressure: 30.09 "Hg

Humidity: 83%

Dew Point: 61 °F

Location of HardLocation

Past Weather in Hard — Graph

°F

Hard Temperature Yesterday

Maximum temperature yesterday: 75 °F (at 4:00 PM)
Minimum temperature yesterday: 65 °F (at 3:00 AM)
Average temperature yesterday: 69 °F

High & Low Weather Summary for the Past Weeks

 TemperatureHumidityPressure
High88 °F (Jul 20, 7:00 PM)98% (Jul 13, 2:00 AM)30.36 "Hg (Jul 13, 2:00 AM)
Low49 °F (Jul 16, 5:00 AM)31% (Jul 20, 5:00 PM)29.83 "Hg (Jul 11, 4:00 PM)
Average67 °F73%30.07 "Hg
* Reported Jul 9 7:00 AM — Jul 24 7:00 AM, Hard, Weather by CustomWeather, © 2016

Note: Actual official high and low records may vary slightly from our data, if they occured in-between our weather recording intervals... More about our weather records

Advertising

Hard Weather History for the Previous 24 Hours

Scroll right to see more
 ConditionsComfort  
Time TempWeatherWind HumidityBarometerVisibility
7:00 AM
Sun, Jul 24
66 °FMild.3 mph81%30.09 "HgN/A
6:00 AM64 °FMild.3 mph85%30.09 "HgN/A
5:00 AM64 °FMild.3 mph84%30.09 "HgN/A
4:00 AM67 °FMild.3 mph78%30.08 "HgN/A
3:00 AM67 °FMild.3 mph75%30.09 "HgN/A
2:00 AM68 °FMild.3 mph77%30.09 "HgN/A
1:00 AM66 °FMild.1 mph83%30.09 "HgN/A
12:00 AM67 °FMild.No wind79%30.09 "HgN/A
9:00 PM
Sat, Jul 23
71 °FMild.7 mph66%30.03 "HgN/A
8:00 PM70 °FMild.9 mph69%30.02 "HgN/A
7:00 PM73 °FMild.2 mph69%30.01 "HgN/A
6:00 PM74 °FMild.1 mph64%30.00 "HgN/A
5:00 PM75 °FMild.2 mph58%30.00 "HgN/A
4:00 PM75 °FMild.2 mph58%30.01 "HgN/A
3:00 PM74 °FMild.2 mph64%30.01 "HgN/A
2:00 PM72 °FOvercast.2 mph72%30.02 "Hg11 mi
1:00 PM71 °FMild.No wind74%30.03 "HgN/A
12:00 PM70 °FMild.2 mph79%30.02 "HgN/A
11:00 AM70 °FMild.1 mph76%30.02 "HgN/A
10:00 AM70 °FMild.2 mph74%30.01 "HgN/A
9:00 AM70 °FMild.2 mph76%30.01 "HgN/A
8:00 AM66 °FOvercast.2 mph88%30.02 "Hg7 mi
Weather by CustomWeather, © 2016

See weather overviewHow to use our weather pages